Poughkeepsie, NY

8:09 AM EDT on October 18, 2017 (GMT -0400)
Dutchess County

Weather History for KPOU - October, 2010

Change the Weather History Date:

Sunday, October 24, 2010

  Actual Average Record
Temperature  
Mean Temperature 55 °F 48 °F  
Max Temperature 63 °F 60 °F 78 °F (2001)
Min Temperature 47 °F 36 °F 21 °F (1969)
Degree Days  
Heating Degree Days 10 17  
Month to date heating degree days 292 312  
Since 1 July heating degree days 375 452  
Cooling Degree Days 0 0  
Month to date cooling degree days 0 0  
Year to date cooling degree days 910 668  
Growing Degree Days 4 (Base 50)    
Moisture  
Dew Point 48 °F    
Average Humidity 82    
Maximum Humidity 93    
Minimum Humidity 64    
Precipitation  
Precipitation 0.03 in 0.13 in 1.37 in (2009)
Month to date precipitation 1.97 3.54  
Year to date precipitation 30.02 38.60  
Sea Level Pressure  
Sea Level Pressure 30.08 in    
Wind  
Wind Speed 1 mph (SSE)    
Max Wind Speed 8 mph    
Max Gust Speed 12 mph    
Visibility 10 miles    
Events Rain    
T = Trace of Precipitation, MM = Missing Value Source: NWS Daily Summary

Daily Weather History Graph

Daily Weather History Graph

Search for Another Location

Airport or City:

Trip Planner

Search our weather history database for the weather conditions in past years. The results will help you decide how hot, cold, wet, or windy it might be!

Date:

Astronomy

Oct. 24, 2010 Rise Set
Actual Time 7:17 AM EDT 6:00 PM EDT
Civil Twilight 6:49 AM EDT 6:29 PM EDT
Nautical Twilight 6:17 AM EDT 7:01 PM EDT
Astronomical Twilight 5:44 AM EDT 7:33 PM EDT
Moon 6:38 PM EDT (10/24) 8:59 AM EDT (10/24)
Length of Visible Light 11h 39m
Length of Day
10h 43m
Full, 97% of the Moon is Illuminated
Oct 24
Full
Oct 30
Last Quarter
Nov 6
New
Nov 13
First Quarter
Nov 21
Full

Hourly Weather History & Observations

Time (EDT) Temp. Dew Point Humidity Pressure Visibility Wind Dir Wind Speed Gust Speed Precip Events Conditions
12:53 AM 48.9 °F 45.0 °F 86% 30.16 in 10.0 mi Calm Calm - 0.01 in Rain Light Rain
1:53 AM 48.9 °F 45.0 °F 86% 30.14 in 10.0 mi Calm Calm - 0.00 in   Overcast
2:53 AM 48.0 °F 46.0 °F 93% 30.16 in 10.0 mi Calm Calm - N/A   Overcast
3:53 AM 48.0 °F 46.0 °F 93% 30.15 in 10.0 mi Calm Calm - N/A   Mostly Cloudy
4:53 AM 48.0 °F 46.9 °F 96% 30.14 in 10.0 mi Calm Calm - 0.01 in   Overcast
5:53 AM 48.0 °F 46.9 °F 96% 30.15 in 7.0 mi Calm Calm - 0.02 in Rain Light Rain
6:53 AM 46.9 °F 46.0 °F 97% 30.14 in 6.0 mi Calm Calm - 0.00 in   Mostly Cloudy
7:53 AM 48.0 °F 46.0 °F 93% 30.14 in 8.0 mi Calm Calm - N/A   Mostly Cloudy
8:53 AM 48.9 °F 46.9 °F 93% 30.15 in 10.0 mi Calm Calm - N/A   Mostly Cloudy
9:53 AM 53.1 °F 48.0 °F 83% 30.14 in 10.0 mi Calm Calm - N/A   Scattered Clouds
10:53 AM 55.9 °F 46.9 °F 72% 30.12 in 10.0 mi Calm Calm - N/A   Clear
11:53 AM 59.0 °F 48.9 °F 69% 30.11 in 10.0 mi West 4.6 mph - N/A   Clear
12:53 PM 60.1 °F 48.9 °F 67% 30.09 in 10.0 mi WNW 3.5 mph - N/A   Clear
1:53 PM 62.1 °F 50.0 °F 65% 30.06 in 10.0 mi West 3.5 mph - N/A   Partly Cloudy
2:53 PM 63.0 °F 50.0 °F 63% 30.03 in 10.0 mi Calm Calm - 0.00 in   Clear
3:53 PM 63.0 °F 50.0 °F 63% 30.03 in 10.0 mi Calm Calm - N/A   Clear
4:53 PM 62.1 °F 51.1 °F 67% 30.01 in 10.0 mi ESE 5.8 mph - N/A   Clear
5:53 PM 61.0 °F 51.1 °F 70% 30.01 in 10.0 mi SE 5.8 mph - N/A   Mostly Cloudy
6:53 PM 60.1 °F 51.1 °F 72% 29.99 in 10.0 mi East 4.6 mph - 0.00 in Rain Light Rain
7:53 PM 57.0 °F 51.1 °F 81% 30.01 in 10.0 mi SE 3.5 mph - 0.00 in   Partly Cloudy
8:53 PM 57.0 °F 51.1 °F 81% 30.01 in 10.0 mi Calm Calm - N/A   Clear
9:53 PM 51.1 °F 48.9 °F 92% 30.01 in 10.0 mi Calm Calm - N/A   Clear
10:53 PM 53.1 °F 51.1 °F 93% 30.01 in 10.0 mi Calm Calm - N/A   Clear
11:53 PM 48.9 °F 46.9 °F 93% 30.00 in 9.0 mi Calm Calm - N/A   Clear